EHI
0 0 0 0 0 0 0 0 1 4 9 13 16 19 25 33 38 39 42 47 51 52 52 50 46 45 45 45 43 40 37 35 33 31 29 27 25 25 24 20 16 16 16 16
0 0 0 0 0 0 0 0 2 6 11 17 22 26 30 34 38 40 40 43 47 50 49 47 43 40 40 41 40 37 32 30 29 27 26 26 23 22 22 20 18 18 17 16
0 0 0 0 0 0 1 2 5 9 14 22 33 37 37 37 39 42 41 40 45 48 47 43 38 34 33 35 36 32 26 23 23 22 23 24 22 20 21 22 22 22 19 16
0 0 0 0 0 1 4 7 9 13 19 29 40 43 41 41 43 44 43 42 44 45 43 39 35 30 29 30 30 27 22 20 20 20 21 23 22 22 23 24 25 25 20 16
0 0 0 2 3 5 9 13 14 18 25 32 36 37 39 44 47 47 44 44 44 41 40 40 36 31 27 25 24 22 20 19 19 19 20 21 22 23 24 24 24 23 19 16
0 0 2 4 6 8 12 16 20 24 28 31 30 32 38 47 51 48 46 45 44 41 40 41 39 32 27 22 19 18 17 17 16 16 16 18 21 24 24 22 19 17 16 16
0 1 4 7 7 10 16 24 28 29 31 34 36 36 42 48 49 47 44 42 40 38 36 35 34 29 23 18 15 14 13 13 13 13 12 14 18 21 21 19 15 13 13 14
2 4 8 12 13 17 28 35 34 32 35 40 40 39 41 43 43 41 38 35 32 30 28 27 25 22 18 14 12 11 11 11 11 11 9 11 15 17 16 15 14 13 13 13
8 9 13 18 20 25 33 37 33 32 35 37 36 34 34 34 34 32 29 26 23 22 21 20 19 17 15 12 10 11 12 12 12 11 10 11 14 14 12 11 12 12 12 12
10 10 13 16 20 21 26 29 30 32 32 31 29 28 28 27 25 23 20 16 15 15 14 14 14 13 12 10 10 12 14 15 14 12 10 12 14 11 9 8 9 9 9 9
5 6 7 10 13 15 18 24 28 30 29 26 25 24 23 20 17 15 12 9 9 10 10 9 8 8 8 8 9 11 14 15 15 11 8 9 9 6 5 5 5 5 5 5
2 3 4 6 8 12 16 20 24 26 23 19 17 17 14 11 9 7 6 5 5 6 6 5 5 5 5 5 6 7 11 13 13 9 7 6 5 2 1 1 1 1 1 1
6 6 6 7 9 13 15 16 18 17 13 9 8 7 5 4 3 3 3 3 3 3 3 3 2 3 3 2 2 3 7 10 10 9 7 6 5 2 0 0 0 0 0 0
9 8 9 10 11 12 12 12 12 9 5 3 2 2 1 1 1 2 2 2 1 1 1 1 1 1 1 0 0 2 4 5 7 8 7 7 7 4 1 0 0 0 0 0
8 8 8 9 8 7 7 7 6 5 3 2 2 1 0 0 1 2 2 1 0 0 0 0 0 0 0 0 0 1 2 3 4 6 7 7 6 4 2 0 0 0 0 1
5 5 4 4 3 2 2 3 3 3 3 3 3 2 0 0 0 1 1 0 0 1 1 0 0 0 0 0 0 0 1 1 2 4 5 5 5 3 1 0 0 0 1 2
2 1 1 1 0 0 0 1 1 1 2 3 3 1 0 0 0 0 0 0 1 2 2 1 0 0 0 0 0 0 0 0 0 1 2 3 3 1 0 0 0 1 2 2
0 0 0 0 0 0 0 0 0 0 0 1 1 1 0 0 0 0 0 0 1 2 2 1 0 0 0 0 0 0 0 0 0 0 0 1 1 0 0 0 0 1 1 1
0 0 0 0 0 0 0 0 0 0 0 0 0 0 0 0 0 0 0 0 0 1 1 1 0 0 0 0 0 0 0 0 0 0 0 0 0 0 0 0 0 0 0 0
0 0 0 0 0 0 0 0 0 0 0 0 0 0 0 0 0 0 0 1 0 0 0 0 0 0 0 0 0 0 0 0 0 0 0 0 0 0 0 0 0 0 0 0
0 0 0 0 0 0 0 0 0 0 0 0 0 0 0 0 0 0 0 0 0 0 0 0 0 0 0 0 0 0 0 0 0 0 0 0 0 0 0 0 0 0 0 0
0 0 0 0 0 0 0 0 0 0 0 0 0 0 0 0 0 0 0 0 0 0 0 0 0 0 0 0 0 0 0 0 0 0 0 0 0 0 0 0 0 0 0 0
0 0 0 0 0 0 0 0 0 0 0 0 0 0 0 0 0 0 0 0 0 0 0 0 0 0 0 0 0 0 0 0 0 0 0 0 0 0 0 0 0 0 0 0
0 0 0 0 0 0 0 0 0 0 0 0 0 0 0 0 0 0 0 0 0 0 0 0 0 0 0 0 0 0 0 0 0 0 0 0 0 0 0 0 0 0 0 0
0 0 0 0 0 0 0 0 0 0 0 0 0 0 0 0 0 0 0 0 0 0 0 0 0 0 0 0 0 0 0 0 0 0 0 0 0 0 0 0 0 0 0 0
0 0 0 0 0 0 0 0 0 0 0 0 0 0 0 0 0 0 0 0 0 0 0 0 0 0 0 0 0 0 0 0 0 0 0 0 0 0 0 0 0 0 0 0
0 0 0 0 0 0 0 0 0 0 0 0 0 0 0 0 0 0 0 0 0 0 0 0 0 0 0 0 0 0 0 0 0 0 0 0 0 0 0 0 0 0 0 0
Wind_Speed
12 11 14 16 16 16 16 15 11 7 10 13 10 9 9 9 11 12 12 11 10 8 7 6 5 4 4 4 4 3 3 2 2 2 2 2 3 4 4 5 6 5 6 6
13 12 13 15 18 18 17 15 11 6 5 9 11 10 11 10 10 11 10 10 9 8 7 5 5 4 3 3 3 3 3 2 2 2 2 2 2 3 3 3 4 4 4 5
10 11 12 15 16 17 15 12 11 9 7 7 11 10 8 8 9 10 9 9 9 8 6 5 4 3 3 3 3 3 2 2 2 2 2 2 2 2 2 2 2 2 3 3
8 9 12 9 10 10 10 9 8 7 9 9 9 10 8 7 9 10 9 8 7 6 6 5 4 3 2 3 3 3 2 2 2 1 1 1 1 1 1 1 2 2 2 2
8 9 8 7 7 8 6 4 6 9 9 10 11 11 8 8 10 10 9 8 6 6 6 5 4 3 2 2 2 2 2 2 1 1 1 1 1 0 1 1 1 2 1 2
7 7 8 5 4 3 5 5 4 8 11 13 12 7 7 10 12 11 10 8 7 7 7 6 4 3 2 2 2 1 1 1 1 0 0 0 0 0 0 1 1 1 1 1
9 6 4 3 5 6 8 5 6 7 9 12 8 7 12 12 12 11 10 9 8 8 7 6 5 4 4 3 3 2 2 1 1 1 1 0 1 1 1 1 2 1 2 2
7 6 3 7 3 1 4 6 6 7 9 13 15 16 15 13 12 10 9 9 9 8 7 7 6 5 5 4 3 2 2 2 3 3 2 2 2 2 1 1 2 2 2 2
2 2 2 4 5 4 4 5 8 9 12 16 16 16 15 12 11 10 10 9 8 8 8 8 7 7 6 5 4 3 4 4 4 4 4 4 3 3 2 2 1 1 1 1
4 4 4 5 5 6 5 6 9 12 13 14 16 15 14 12 10 9 9 9 8 9 9 8 8 8 6 6 6 5 5 5 4 5 5 6 5 5 4 4 3 3 2 2
4 3 3 5 5 6 7 10 13 14 13 14 15 15 13 11 10 9 9 9 9 9 9 9 8 8 8 7 6 5 5 5 5 5 5 6 8 8 7 8 6 4 4 3
3 4 3 5 5 7 10 11 13 14 14 13 14 14 13 11 10 9 10 9 9 9 9 8 8 8 8 7 6 5 5 5 4 4 4 5 6 8 13 11 12 13 10 7
3 5 7 8 9 10 10 11 13 14 14 14 13 13 13 12 10 10 10 10 9 9 9 8 8 8 8 7 6 6 5 4 4 4 4 4 4 5 6 7 11 13 12 10
6 8 9 9 9 10 11 13 14 14 14 13 13 13 12 12 12 11 11 10 10 9 9 8 8 8 7 6 6 6 5 5 4 4 4 4 4 5 5 5 5 6 7 9
5 8 9 9 11 11 11 12 14 13 13 13 12 12 13 12 12 11 10 9 10 10 9 9 9 8 6 6 6 6 5 4 4 4 5 5 5 5 6 7 6 5 5 6
8 10 11 11 11 11 12 13 13 12 12 13 13 13 13 12 12 11 10 9 10 10 9 8 8 7 6 6 6 6 6 8 6 5 6 6 6 6 6 6 6 6 6 5
9 10 10 10 11 11 11 11 12 12 12 12 13 13 12 12 11 11 11 10 10 9 9 8 7 6 6 6 5 5 6 6 7 7 6 6 6 6 6 6 6 6 6 6
7 8 9 9 10 12 12 12 11 11 11 11 11 11 11 11 11 10 10 10 10 10 9 8 7 6 7 7 5 5 5 5 6 6 6 6 6 6 6 6 6 7 6 7
10 10 10 11 12 12 11 11 11 11 11 11 11 11 10 10 10 9 9 9 9 9 8 8 7 7 7 7 6 4 5 6 6 6 5 5 5 6 6 6 6 6 6 6
11 12 12 13 13 12 11 10 10 10 11 11 11 11 11 10 9 10 10 9 8 6 6 6 6 7 7 7 6 5 6 6 6 6 5 5 5 6 6 6 6 7 7 7
11 12 13 13 12 12 11 10 10 11 11 11 10 11 10 10 9 8 8 8 7 6 5 6 5 6 6 5 5 6 6 6 6 6 6 6 6 6 7 7 7 7 7 6
10 11 12 12 13 12 10 10 10 11 11 10 11 10 10 10 10 9 9 7 6 5 4 6 6 8 8 6 5 6 6 7 6 6 6 6 6 6 7 7 6 6 6 6
9 10 11 11 12 12 11 10 10 10 10 10 10 9 9 7 7 7 7 6 6 6 6 6 6 8 8 4 5 6 6 7 6 6 6 6 6 6 6 7 6 6 5 5
9 9 9 10 11 11 11 11 11 10 11 10 9 9 8 7 7 7 7 7 7 6 6 6 7 7 4 3 5 6 6 6 6 5 6 6 6 6 6 6 6 5 5 6
10 10 10 10 10 10 10 10 11 10 10 9 9 8 7 7 7 7 7 8 6 5 6 5 5 5 4 5 6 6 7 7 6 6 6 6 6 6 6 5 5 5 5 6
9 8 8 8 8 7 8 8 8 7 8 8 8 7 6 6 7 6 5 7 7 5 5 4 4 4 5 6 7 7 6 6 6 6 7 6 7 7 6 6 7 6 6 6
10 8 7 7 7 6 7 7 8 8 7 8 7 6 6 5 6 6 6 5 5 5 4 4 4 5 6 6 6 6 6 6 6 6 6 6 6 6 6 7 6 6 6 6
Wind_Direction
255 246 216 214 222 226 228 230 235 208 172 165 179 158 141 147 142 135 130 127 126 127 125 126 127 131 136 143 140 152 162 173 176 199 209 211 212 212 210 210 211 207 206 209
251 252 238 220 215 223 229 227 223 202 190 165 153 145 144 151 142 137 133 130 129 128 126 127 129 139 138 142 144 151 163 170 167 184 194 196 208 209 208 210 212 209 211 212
243 240 243 232 218 217 224 221 216 200 185 149 135 134 134 137 134 128 128 127 126 126 125 121 124 126 139 136 145 152 162 167 163 175 189 191 212 205 207 205 201 203 215 217
244 236 234 237 233 218 219 206 196 177 154 140 130 122 117 120 118 114 111 109 112 118 120 120 117 116 127 134 143 155 160 152 142 158 162 164 200 207 207 188 189 207 212 219
235 229 229 236 229 210 197 195 170 144 138 131 124 112 99 101 101 102 103 104 103 103 105 101 101 99 97 117 134 142 140 132 128 122 151 183 201 186 191 176 191 202 195 204
235 229 225 222 255 223 174 180 142 147 151 147 152 154 127 107 100 96 92 88 87 86 87 85 85 91 100 91 94 98 100 98 85 58 310 219 191 165 176 157 162 168 149 141
236 232 247 303 280 253 209 164 149 151 147 151 149 119 117 110 101 97 93 88 80 73 73 70 72 76 74 60 55 44 50 63 57 39 25 85 92 97 125 136 121 104 84 71
223 227 228 341 322 351 79 95 112 119 131 120 112 112 114 109 104 102 96 89 84 76 68 65 64 70 68 49 37 37 58 71 64 50 27 51 63 65 79 119 122 114 99 75
80 119 82 24 56 78 90 101 110 112 114 120 119 118 115 110 104 99 93 85 80 79 71 60 53 54 57 42 32 43 58 62 59 56 42 42 55 53 51 59 81 96 99 96
93 99 91 70 66 78 94 106 107 110 113 117 115 113 111 106 100 94 88 84 80 76 69 60 50 47 46 44 42 51 58 59 60 61 54 48 50 47 46 35 37 48 54 58
131 132 102 85 75 85 97 99 100 104 107 110 112 111 108 103 97 91 85 79 75 74 72 63 52 45 39 39 44 55 60 63 68 70 65 58 56 44 47 46 36 42 43 45
131 134 115 99 85 92 96 102 108 109 107 107 109 110 107 103 98 94 89 84 80 75 72 67 60 52 42 35 36 50 63 62 68 75 76 76 79 71 54 60 56 55 55 61
91 111 105 100 90 89 98 103 109 110 109 109 107 108 107 105 99 93 87 81 79 78 75 69 62 53 44 41 43 50 58 63 69 77 81 89 93 92 86 67 56 54 53 56
91 108 111 107 102 99 102 104 106 107 109 109 109 109 106 103 99 92 88 85 82 78 74 71 66 57 46 50 56 59 61 69 73 75 77 80 85 87 86 82 72 59 50 50
99 105 108 108 106 104 106 108 107 108 110 109 108 106 105 102 98 93 90 88 84 78 71 67 64 56 45 50 58 60 61 63 66 68 68 70 73 79 82 80 78 74 67 53
105 106 111 114 114 114 114 113 112 111 110 109 107 104 102 100 97 92 87 83 80 75 71 67 63 56 51 56 63 69 70 65 67 70 70 72 74 75 77 80 78 71 62 54
121 123 124 122 119 116 113 112 111 109 107 106 106 105 104 101 97 92 86 81 78 76 72 67 63 60 56 51 55 72 78 76 71 72 69 68 71 73 74 74 74 74 66 52
119 119 120 120 120 116 112 109 109 110 110 110 108 106 103 100 96 93 91 88 80 71 64 61 56 56 58 49 39 60 74 76 69 68 69 68 72 77 80 81 79 77 75 67
115 115 115 112 111 110 109 110 110 109 110 109 107 104 99 97 96 96 94 89 83 74 61 55 49 56 59 48 32 67 76 81 82 81 82 82 79 75 73 73 72 70 72 68
117 117 116 113 111 110 110 109 109 106 104 105 104 102 100 98 96 93 86 76 67 69 70 56 55 58 52 37 29 61 68 71 72 72 71 71 69 71 72 71 69 70 66 65
117 118 116 115 113 111 112 112 111 109 108 108 107 106 105 102 99 95 93 86 73 60 66 66 54 50 48 28 44 63 64 64 66 67 67 67 66 64 65 66 64 63 62 61
119 118 117 117 116 115 113 111 112 113 112 110 108 107 106 103 98 87 77 79 77 49 63 69 57 35 13 16 61 64 64 64 62 62 63 64 65 65 66 68 66 64 61 58
119 120 121 121 121 121 118 115 115 114 112 110 110 109 105 99 96 96 90 76 74 55 61 61 33 16 1 45 71 72 69 66 63 63 65 67 70 69 67 67 65 63 60 56
116 115 117 119 119 117 114 112 110 110 110 107 104 103 104 103 97 94 96 90 70 71 72 57 29 15 11 69 72 72 71 68 65 65 68 69 72 73 69 66 67 67 64 61
116 118 122 124 122 119 119 119 117 117 114 111 108 101 94 91 94 94 98 102 108 95 90 77 42 23 47 68 72 72 69 64 60 59 64 65 66 65 61 60 61 60 60 56
115 113 112 113 114 122 126 125 121 117 114 110 103 98 96 100 105 107 108 106 100 96 91 88 79 70 65 68 69 70 76 78 71 69 65 64 65 64 60 53 54 52 56 56
113 111 111 110 110 111 112 114 113 112 109 108 108 106 102 101 101 104 105 103 100 92 85 81 74 70 72 71 71 70 71 70 66 66 67 66 64 62 61 60 56 52 51 56